sat.trackr.live / text

‹ back to catalog

TRANSPORTER-16 OBJECT AT

NORAD 68457 · 2026-067AT

PAYLOAD ACTIVE UNKNOWN

§ Identity

Operator
Country
TBD
Launch date
2026-03-30
Launch site
AFWTR
Launch vehicle
Mass (kg)
RCS (m²)

External: N2YO · Heavens-Above · Gunter

§ Orbital elements

Epoch: 2026-09-19T16:31:15.727872Z

Period
94.67 min
Inclination
97.4648°
Eccentricity
0.0003054
Mean motion
15.21007271 rev/d
Perigee alt
500.7 km
Apogee alt
504.9 km
Semi-major
6,880.9 km
B*
3.3596e-4
RAAN
220.2115°
Arg perigee
60.5459°
Mean anomaly
299.6081°
Rev number
2,630

§ Raw data

TRANSPORTER-16 OBJECT AT1 68457U 26067AT  26262.68837648  .00007384  00000+0  33596-3 0  99992 68457  97.4648 220.2115 0003054  60.5459 299.6081 15.21007271 26306

JSON: /api/v1/satellites/68457 · /tle

For live sub-satellite position, see the globe view (requires WebGL).

§ Visibility from observer

Set your observer location to see the next 7 days of passes ≥ 10°. The values pass through the URL so the page stays shareable.

No JS? Fill the form by hand. The geolocation button needs JavaScript.